This demonstration page uses our WeatherBlox Daily Observations layout. Learn more.

Left ArrowRight Arrow

Hourly Observations for January 15, 2017

Temp ( °F °C ) Dew Point ( °F °C ) Humidity (%) Winds ( mph kmh ) Pressure ( in mb ) Visibility ( mi km ) Precip ( " mm )
12:14 am 00:14 Cloudy with Mist and Fog 36 2 36 2 100 100 N N/A 30.36 1028 1 2 N/A
12:34 am 00:34 Cloudy with Mist and Fog 36 2 36 2 100 100 N 3 6 30.36 1028 2 2 N/A
12:54 am 00:54 Cloudy with Mist and Fog 36 2 36 2 100 100 N 3 6 30.36 1028 2 3 N/A
1:14 am 01:14 Cloudy with Mist and Fog 36 2 36 2 100 100 N 3 6 30.36 1028 3 5 N/A
1:34 am 01:34 Cloudy with Mist and Fog 36 2 36 2 100 100 undefined N/A 30.33 1027 3 4 N/A
1:54 am 01:54 Cloudy with Mist and Fog 36 2 36 2 100 100 N N/A 30.33 1027 3 4 N/A
2:14 am 02:14 Cloudy with Mist and Fog 36 2 36 2 100 100 N N/A 30.33 1027 3 5 N/A
2:34 am 02:34 Cloudy with Mist and Fog 36 2 36 2 100 100 NNW 5 7 30.36 1028 4 6 N/A
2:54 am 02:54 Cloudy with Mist and Fog 36 2 36 2 100 100 NW 7 11 30.36 1028 3 5 N/A
3:14 am 03:14 Cloudy with Mist and Fog 36 2 36 2 100 100 N 6 9 30.36 1028 4 6 N/A
3:34 am 03:34 Cloudy 37 3 37 3 100 100 NNW 9 15 30.36 1028 7 11 N/A
3:54 am 03:54 Cloudy 37 3 37 3 100 100 N 6 9 30.36 1028 7 11 N/A
4:14 am 04:14 Cloudy 36 2 36 2 100 100 NNW 6 9 30.36 1028 7 11 N/A
5:14 am 05:14 Cloudy 37 3 37 3 100 100 undefined N/A 30.36 1028 10 16 N/A
5:34 am 05:34 Cloudy 37 3 37 3 100 100 NNW 7 11 30.36 1028 10 16 N/A
6:14 am 06:14 Cloudy 37 3 37 3 100 100 NNW 10 17 30.39 1029 10 16 N/A
7:14 am 07:14 Cloudy 37 3 37 3 100 100 NNW 9 15 30.42 1030 10 16 N/A
7:35 am 07:35 Cloudy 37 3 37 3 100 100 NNW 10 17 30.42 1030 10 16 N/A
7:54 am 07:54 Mostly Cloudy 37 3 36 2 93 93 undefined N/A 30.42 1030 10 16 N/A
8:14 am 08:14 Partly Cloudy 37 3 36 2 93 93 undefined N/A 30.45 1031 10 16 N/A
8:34 am 08:34 Sunny 37 3 36 2 93 93 undefined N/A 30.45 1031 10 16 N/A
8:55 am 08:55 Sunny 39 4 37 3 93 93 undefined N/A 30.45 1031 10 16 N/A
9:14 am 09:14 Sunny 39 4 37 3 93 93 undefined N/A 30.45 1031 10 16 N/A
9:34 am 09:34 Sunny 39 4 37 3 93 93 undefined N/A 30.45 1031 10 16 N/A
9:54 am 09:54 Sunny 41 5 36 2 81 81 undefined N/A 30.48 1032 10 16 N/A
10:14 am 10:14 Sunny 43 6 36 2 76 76 undefined N/A 30.48 1032 10 16 N/A
10:34 am 10:34 Sunny 43 6 36 2 76 76 undefined N/A 30.45 1031 10 16 N/A
10:54 am 10:54 Sunny 45 7 30 -1 57 57 undefined N/A 30.45 1031 10 16 N/A
11:14 am 11:14 Sunny 45 7 28 -2 53 53 undefined N/A 30.45 1031 10 16 N/A
11:34 am 11:34 Sunny 45 7 27 -3 49 49 undefined N/A 30.45 1031 10 16 N/A
11:54 am 11:54 Sunny 45 7 25 -4 46 46 undefined N/A 30.42 1030 10 16 N/A
12:14 pm 12:14 Sunny 45 7 27 -3 49 49 N 8 13 30.42 1030 10 16 N/A
12:34 pm 12:34 Sunny 45 7 23 -5 42 42 undefined N/A 30.42 1030 10 16 N/A
1:15 pm 13:15 Sunny 45 7 21 -6 39 39 N 8 13 30.39 1029 10 16 N/A
1:34 pm 13:34 Sunny 45 7 19 -7 37 37 N 9 15 30.39 1029 10 16 N/A
1:54 pm 13:54 Sunny 45 7 23 -5 42 42 NNW 5 7 30.39 1029 10 16 N/A
2:14 pm 14:14 Sunny 45 7 19 -7 37 37 N 6 9 30.39 1029 10 16 N/A
2:34 pm 14:34 Sunny 45 7 25 -4 46 46 NNE 7 11 30.39 1029 10 16 N/A
2:54 pm 14:54 Sunny 45 7 25 -4 46 46 undefined N/A 30.39 1029 10 16 N/A
3:14 pm 15:14 Sunny 45 7 25 -4 46 46 undefined N/A 30.39 1029 10 16 N/A
3:35 pm 15:35 Sunny 43 6 21 -6 42 42 N 7 11 30.39 1029 10 16 N/A
3:54 pm 15:54 Sunny 43 6 23 -5 46 46 undefined N/A 30.39 1029 10 16 N/A
4:14 pm 16:14 Sunny 43 6 21 -6 42 42 undefined N/A 30.39 1029 10 16 N/A
4:34 pm 16:34 Sunny 43 6 21 -6 42 42 undefined N/A 30.39 1029 10 16 N/A
4:54 pm 16:54 Sunny 43 6 21 -6 42 42 undefined N/A 30.42 1030 10 16 N/A
5:15 pm 17:15 Clear 43 6 25 -4 49 49 undefined N/A 30.42 1030 10 16 N/A
5:34 pm 17:34 Clear 41 5 23 -5 49 49 undefined N/A 30.42 1030 10 16 N/A
5:54 pm 17:54 Clear 41 5 23 -5 49 49 undefined N/A 30.42 1030 10 16 N/A
6:15 pm 18:15 Clear 41 5 23 -5 49 49 undefined N/A 30.42 1030 10 16 N/A
6:34 pm 18:34 Clear 41 5 23 -5 49 49 undefined N/A 30.42 1030 10 16 N/A
6:54 pm 18:54 Clear 37 3 27 -3 65 65 undefined N/A 30.42 1030 10 16 N/A
7:15 pm 19:15 Clear 37 3 28 -2 70 70 undefined N/A 30.42 1030 10 16 N/A
7:34 pm 19:34 Partly Cloudy 37 3 27 -3 65 65 undefined N/A 30.42 1030 10 16 N/A
7:54 pm 19:54 Mostly Cloudy 36 2 28 -2 75 75 undefined N/A 30.45 1031 10 16 N/A
8:14 pm 20:14 Mostly Cloudy 37 3 27 -3 65 65 undefined N/A 30.45 1031 10 16 N/A
8:35 pm 20:35 Mostly Cloudy 37 3 28 -2 70 70 undefined N/A 30.45 1031 10 16 N/A
8:54 pm 20:54 Cloudy 37 3 27 -3 65 65 undefined N/A 30.45 1031 10 16 N/A
9:15 pm 21:15 Cloudy 39 4 27 -3 61 61 undefined N/A 30.45 1031 10 16 N/A
9:35 pm 21:35 Cloudy 39 4 27 -3 61 61 undefined N/A 30.45 1031 10 16 N/A
9:54 pm 21:54 Cloudy 39 4 27 -3 61 61 undefined N/A 30.45 1031 10 16 N/A
10:14 pm 22:14 Cloudy 39 4 30 -1 70 70 undefined N/A 30.45 1031 10 16 N/A
10:35 pm 22:35 Cloudy 39 4 28 -2 65 65 undefined N/A 30.45 1031 10 16 N/A
10:54 pm 22:54 Cloudy 39 4 27 -3 61 61 undefined N/A 30.45 1031 10 16 N/A
11:14 pm 23:14 Cloudy 39 4 27 -3 61 61 undefined N/A 30.45 1031 10 16 N/A
11:35 pm 23:35 Cloudy 39 4 27 -3 61 61 undefined N/A 30.45 1031 10 16 N/A
11:55 pm 23:55 Cloudy 39 4 27 -3 61 61 undefined N/A 30.45 1031 10 16 N/A

Powered by AerisWeather